Regional Weather Roundup
Issued by NWS

Home | Current Version | Previous Version | Graphics & Text | Print | Product List | Glossary On
Versions: 1 2 3 4 5 6 7 8 9 10 11 12 13 14 15 16 17 18 19 20 21 22 23 24 25 26 27 28 29 30 31 32 33 34 35 36 37 38 39 40 41 42 43 44 45 46 47 48 49 50
000
ASUS43 KFSD 040202
RWRSD

WEATHER ROUNDUP FOR SOUTH DAKOTA
NATIONAL WEATHER SERVICE SIOUX FALLS SD
800 PM CST SAT DEC 03 2016

NOTE: "FAIR" INDICATES FEW OR NO CLOUDS BELOW 12,000 FEET WITH NO
SIGNIFICANT WEATHER AND/OR OBSTRUCTIONS TO VISIBILITY.


SDZ001>005-009-010-012>017-040300-
NORTHWEST AND NORTH CENTRAL SOUTH DAKOTA

CITY           SKY/WX    TMP DP  RH WIND       PRES   REMARKS
BUFFALO          N/A     33  25  72 W15       29.78R WCI  23
FAITH            N/A     28  25  88 SW12      29.85S WCI  18
MOBRIDGE       CLOUDY    30  23  75 CALM      29.84F
$$

SDZ012>016-024>037-041>051-057-063-072>074-040300-
SOUTHWEST AND SOUTH CENTRAL SOUTH DAKOTA

CITY           SKY/WX    TMP DP  RH WIND       PRES   REMARKS
RAPID CTY ARPT CLOUDY    31  21  66 W7        29.90S WCI  24
PIERRE         CLEAR     28  21  75 W7        29.89F WCI  21
CUSTER         CLEAR     25  17  72 W7        29.88S WCI  17
ELLSWORTH AFB  PTCLDY    28  22  78 W9        29.89S WCI  19
PHILIP         MOCLDY    32  25  75 W7        29.90F WCI  26
PINE RIDGE     CLOUDY    28  19  69 CALM      29.94R
SPEARFISH      FAIR      36  23  60 W17G26    29.89S
WINNER         FAIR      29  22  75 W6        29.93S WCI  23
$$

SDZ004>011-016>023-039-040-040300-
NORTHEAST SOUTH DAKOTA

CITY           SKY/WX    TMP DP  RH WIND       PRES   REMARKS
ABERDEEN       CLOUDY    33  30  88 S14       29.93F WCI  23
WATERTOWN      CLOUDY    33  32  96 S16G23    29.96F WCI  23
SISSETON         N/A     33  32  96 S13       29.98F WCI  24
$$

SDZ017-020-022-023-036>040-048>070-040300-
SOUTHEAST SOUTH DAKOTA

CITY           SKY/WX    TMP DP  RH WIND       PRES   REMARKS
SIOUX FALLS    NOT AVBL
HURON          PTCLDY    34  33  96 S13       29.95F WCI  25
CHAMBERLAIN    MOCLDY    32  31  95 CALM      29.91F
MITCHELL       CLOUDY    37  34  89 S17G25    29.98F
YANKTON        CLOUDY    36  30  80 S15       30.04S
$$

ABBREVIATIONS USED IN REMARKS
   TC - TEMPERATURE IN CELSIUS
  WCI - WIND CHILL INDEX
   HX - HEAT INDEX
  VSB - VISIBILITY




USA.gov is the U.S. government's official web portal to all federal, state and local government web resources and services.